Tracking 27112 objects as of 27-Mar-2023
HD Live streaming from Space Station
objects crossing your sky now

STARLINK-3059

Track STARLINK-3059 now!
10-day predictions
STARLINK-3059 is classified as:


NORAD ID: 49181
Int'l Code: 2021-082BD
Perigee: 578.3 km
Apogee: 582.1 km
Inclination: 70.0 °
Period: 96.1 minutes
Semi major axis: 6951 km
RCS: Unknown
Launch date: September 14, 2021
Source: United States (US)
Launch site: AIR FORCE WESTERN TEST RANGE (AFWTR)
Your satellite tracking list
Your tracking list is empty




NASA's NSSDC Master Catalog

Two Line Element Set (TLE):
1 49181U 21082BD  23085.55921431 -.00083723  00000-0 -71531-2 0  9998
2 49181  70.0030 135.3326 0002772 270.6909  89.3932 14.98004622 85529
Source of the keplerian elements: AFSPC